Regional Weather Roundup
Issued by NWS

Home | Current Version | Previous Version | Text Only | Print | Product List | Glossary Off
Versions: 1 2 3 4 5 6 7 8 9 10 11 12 13 14 15 16 17 18 19 20 21 22 23 24 25 26 27 28 29 30 31 32 33 34 35 36 37 38 39 40 41 42 43 44 45 46 47 48 49 50

000
ASUS43 KFSD 101329
RWRSD

SOUTH DAKOTA HOURLY REGIONAL WEATHER ROUNDUP
NATIONAL WEATHER SERVICE ABERDEEN SD
800 AM CDT THU JUL 10 2014

...SATELLITE DATA IS USED TO AUGMENT CLOUD COVER ABOVE 12000 FEET...

NOTE: "FAIR" INDICATES FEW OR NO CLOUDS BELOW 12,000 FEET WITH NO
SIGNIFICANT WEATHER AND/OR OBSTRUCTION TO VISIBILITY.

SDZ001>005-009-010-012>017-101400-
...NORTHWEST AND NORTH CENTRAL SOUTH DAKOTA...

CITY           SKY/WX    TMP DP  RH WIND       PRES   REMARKS
BUFFALO          N/A     61  58  90 E10       29.80F
FAITH            N/A     60  58  92 SE15      29.87F
MOBRIDGE       SUNNY     63  59  87 SE7       29.90R
$$

SDZ012>016-024>037-041>051-057-063-101400-
...SOUTHWEST AND SOUTH CENTRAL SOUTH DAKOTA...

CITY           SKY/WX    TMP DP  RH WIND       PRES   REMARKS
RAPID CITY     PTSUNNY   61  59  93 SE7       29.87R
ELLSWORTH AFB  PTSUNNY   62  60  91 SE10      29.88R
CUSTER         PTSUNNY   59  56  89 NW5       30.00R
PHILIP         MOSUNNY   63  60  90 E7        29.87F
PINE RIDGE     CLOUDY    64  60  87 SW5       29.94S
PIERRE         CLOUDY    63  59  87 SE13      29.90F
WINNER         NOT AVBL
$$

SDZ004>011-016>023-039-040-101400-
...NORTHEAST SOUTH DAKOTA...

CITY           SKY/WX    TMP DP  RH WIND       PRES   REMARKS
ABERDEEN       SUNNY     61  58  90 S8        29.95S
WATERTOWN      SUNNY     62  55  77 S8        30.00R
BROOKINGS      NOT AVBL
SISSETON         N/A     61  58  90 S5        29.98R
$$

SDZ017-020-022-023-036>040-048>070-101400-
...SOUTHEAST SOUTH DAKOTA...

CITY           SKY/WX    TMP DP  RH WIND       PRES   REMARKS
SIOUX FALLS    MOSUNNY   68  60  75 S14       30.02R
YANKTON        MOSUNNY   63  61  94 SE8       30.01F
MITCHELL       MOSUNNY   64  60  87 SE10      29.98F
HURON          MOSUNNY   63  58  83 S8        29.96S
CHAMBERLAIN    PTSUNNY   62  59  90 SE9       29.95R
$$



USA.gov is the U.S. government's official web portal to all federal, state and local government web resources and services.